Volver al catálogo

STARLINK-6088

ActivoComunicacionesVLEO
NORAD 56098·PAYLOAD·🇺🇸 United States

Lanzado Mar 29, 2023 desde Cape Canaveral Space Force Station

Loading…

Próximos Pases (próximas 24 horas)

TLE

ActualizadoSource: CelesTrak SupGP

Época: Sep 15, 2026, 01:25 UTC

1 56098C 23046F   26258.05951389 -.00003990  00000+0 -14456-3 0  2589
2 56098  42.9997 171.8719 0001296 261.8745 179.8308 15.27574635    17

Sigue STARLINK-6088 en tiempo real con AllMySat

Download on the App Store